Погода в Мариуполе

Погода в Мариуполе : погода сейчас, прогноз погоды и архив. Всё, что Вы хотите узнать о погоде в Мариуполе!

Поиск расширенной информации на нашем сайте:

Полезная информация:

Другие новости

Новости СМИ2

Главная страница сайта

Новости сайта

03.07.2017

Напоминаем, что на нашем специализированном сайте Метеоцентр.Азия вы можете получить высокодетализированные автоматические прогнозы погоды по пунктам России, СНГ и мира в авиационном формате (включающие направление и скорость ветра, видимость, явления погоды, количество и форму облачности, нижнюю и верхнюю границу облачности).

Рекомендуем:

Погода в Мариуполе - сегодня

Время (UTC), дата Ветер
(°,м/с) 
Видим.   Явления Облачность Т
(°С)
Тd
(°С)
f(%) Тe
(°С)
Pmin
(гПа)
dP
(гПа)
Po
(мм)
O2
(г/м3)
Тmin Tmax R s Состояние
почвы
21 18.05.19 070 (В) 10 км    3/0 верхняя 
[Cc]
+20 +8.8 48 +20  1009.2  0.2  751  280           
00 19.05.19 070 (В) 10 км    ясно 
+18.2 +7.1 48 +18  1008.2  -1  750  282           
03 19.05.19 070 (В) 10 км    3/0 верхняя 
[Cc]
+17 +5.9 48 +17  1009.3  751  284           
06 19.05.19 090 (В) 20000 м    6/0 верхняя 
[Cs]
+21.5 +9.1 45 +22  1009.9  0.7  751  279  +16.7        мокрая 
09 19.05.19 110 (В) 20000 м    8/0 верхняя 
[Cs]
+23.8 +15.1 58 +33  1010.4  0.6  752  276      200   
12 19.05.19 110 (В) 20000 м    8/3 600 м верхняя 
[Cu hum|Cs]
+24.7 +15.8 58 +35  1010.9  0.5  752  275           
15 19.05.19 110 (В) 20000 м    8/3 600 м верхняя 
[Cu hum|Cs]
+23.9 +15 57 +32  1011.3  0.4  752  276           
18 19.05.19 140 (ЮВ) 20000 м    10/4 660 м кучево-дожд., средняя, верхняя 
[Cb cap|Ac lent|Cs]
+21.6 +14 62 +28  1012.7  1.3  753  279    +24.7       
21 19.05.19 070 (В) 10 км    3/0 верхняя 
[Cs]
+21.5 +9.4 46 +22  1013.1  0.4  754  280           
00 20.05.19 070 (В) 20000 м    8/0 средняя 
[Ac As]
+19 +7.1 46 +19  1014.4  1.2  755  283      350   
03 20.05.19 050 (СВ) 10 км    3/0 средняя 
[Ac trans]
+17.7 +5.5 45 +18  1015.1  0.7  755  285           
06 20.05.19 110 (В) 20000 м    3/0 средняя 
[Ac trans]
+21.1 +7.2 41 +21  1016.4  1.4  756  282  +17.5         
09 20.05.19 110 (В) 20000 м    1/0 средняя 
[Ac trans]
+23.5 +7.4 36 +24  1016.9  0.5  757  280         
12 20.05.19 140 (ЮВ) 20000 м    3/3 1000 м 
[Cu hum]
+23.8 +9.4 40 +24  1016.9  757  279        598   
15 20.05.19 110 (В) 20000 м    ясно 
+24 +8.7 38 +24  1016.3  -0.5  756  279           
18 20.05.19 110 (В) 20000 м    3/0 средняя 
[Ac cast]
+21.8 +13.7 60 +28  1016.7  0.3  756  280    +24.5       
21 20.05.19 090 (В) 10 км    ясно 
+19.6 +12.2 62 +24  1017.2  0.4  757  282           
00 21.05.19 090 (В) 10 км    ясно 
+18.6 +10.8 60 +21  1017.8  0.6  757  284           
03 21.05.19 090 (В) 20000 м    4/0 верхняя 
[Cs]
+16.5 +8.2 58 +16  1018  0.1  757  286           
06 21.05.19 110 (В) 20000 м    8/0 верхняя 
[Ci fib]
+20.6 +9.8 50 +21  1018.6  0.7  758  282  +16.3        мокрая 
09 21.05.19 110 (В) 20000 м    8/0 средняя, верхняя 
[Ac trans|Ci fib]
+21.4 +10.4 49 +23  1017.9  -0.6  757  281           
12 21.05.19 110 (В) 20000 м    8/0 средняя, верхняя 
[Ac trans|Cc]
+23.4 +10.8 45 +25  1017.2  -0.7  757  279           
15 21.05.19 110 (В) 20000 м    10/0 средняя, верхняя 
[As op|Cs]
+22.4 +12.3 53 +27  1015.6  -1.6  756  279           
18 21.05.19 110 (В) 20000 м    10/0 средняя 
[Ac As]
+21.9 +14 61 +29  1014.8  -0.8  755  279    +23.5      мокрая 
21 21.05.19 110 (В) 20000 м  в посл. час ливневой дождь  10/3 600 м кучево-дожд., средняя 
[Cb cap|As op]
+21.3 +14.3 64 +29  1014.1  -0.7  755  279           
Время (UTC), дата Ветер
(°,м/с) 
Видим.   Явления Облачность Т
(°С)
Тd
(°С)
f(%) Тe
(°С)
Pmin
(гПа)
dP
(гПа)
Po
(мм)
O2
(г/м3)
Тmin Tmax R s Состояние
почвы

Для получения пояснительной информации подведите курсор к названию столбца.

ПОГОДА в Мариуполе - архив

Всё, что Вы хотите узнать о погоде в Мариуполе - удобно и подробно!

Выберите нужную дату (начиная с 1 января 2018* года) и нажмите кнопку "Найти".
Будут отображены архивные сводки погоды по пункту Мариуполь, начиная с указанной даты.


Отображать данные в формате CSV (для использования в таблицах Excel)


Внимание! Наш архив погоды предназначен исключительно для личного некоммерческого использования в познавательных целях. Если Вам необходимы официальные справки о состоянии погоды (для производственных, юридических, коммерческих и т.п. целей), обращайтесь в органы Росгидромета.

*Примечание: данная дата относится к архиву по метеостанциям СССР (Россия, СНГ, Балтия).
Архив по метеостанциям Зарубежной Европы и Азии (кроме Китая) хранится 10 дней, по другим регионам земного шара (Китай, Африка, Америка, Австралия, Океания) - 1 день.

Мариуполь - район местоположения метеостанции


Название, широта, долгота, высота метеостанции:
Мариуполь (город) 47°ш. 37.5°д. 70 м над ур. моря [Украина]

Дополнительная информация

В oтличие oт бoльшинства пoгoдных сайтoв мы публикуем пoдрoбную метеoинфoрмацию в детальнoм прoфессиoнальнoм фoрмате.

Характеристики температуры и влажнoсти вoздуха измеряются на высoте 2 м в тени вдали oт зданий и деревьев.
Скoрoсть ветра измеряется на высoте 10 м (на урoвне рoста челoвека скoрoсть ветра ниже в 1.5-2 раза). Если метеoстанция нахoдится в гoрoде или в лесу, тo скoрoсть ветра занижена на 2-4 м/с пo сравнению с oткрытым местoм. Скoрoсть ветра над акватoриями крупных рек и oзёр, а также на вершинах хoлмoв на 2-5 м/с выше, чем в oбычных услoвиях.
Атмoсфернoе давление в разных тoчках местнoсти мoжет значительнo oтличаться oт давления на метеoстанции, в зависимoсти oт услoвий рельефа (при пoдъёме на 10 м давление пoнижается примернo на 1 мм рт.ст.).